Time,TemperatureF,DewpointF,PressureIn,WindDirection,WindDirectionDegrees,WindSpeedMPH,WindSpeedGustMPH,Humidity,HourlyPrecipIn,Conditions,Clouds,dailyrainin,SoftwareType,DateUTC
2013-02-26 00:01:00,32.0,26.0,30.00,East,87,9.0,14.0,79,0.00,,,0.00,,2013-02-26 05:01:00,
2013-02-26 00:12:00,32.0,26.0,29.98,East,81,8.0,14.0,78,0.00,,,0.00,,2013-02-26 05:12:00,
2013-02-26 00:22:00,32.0,26.0,29.98,East,81,8.0,14.0,78,0.00,,,0.00,,2013-02-26 05:22:00,
2013-02-26 00:32:00,32.0,26.0,29.98,ENE,72,7.0,12.0,77,0.00,,,0.00,,2013-02-26 05:32:00,
2013-02-26 00:43:00,32.0,26.0,29.98,ENE,72,7.0,12.0,77,0.00,,,0.00,,2013-02-26 05:43:00,
2013-02-26 00:52:00,32.0,26.0,29.97,East,80,9.0,14.0,78,0.00,,,0.00,,2013-02-26 05:52:00,
2013-02-26 01:02:00,32.0,26.0,29.97,ESE,107,10.0,17.0,77,0.00,,,0.00,,2013-02-26 06:02:00,
2013-02-26 01:11:00,32.0,26.0,29.97,ESE,107,10.0,17.0,77,0.00,,,0.00,,2013-02-26 06:11:00,
2013-02-26 01:21:00,32.0,26.0,29.97,ENE,72,10.0,14.0,77,0.00,,,0.00,,2013-02-26 06:21:00,
2013-02-26 01:32:00,32.0,25.0,29.96,ENE,61,11.0,17.0,76,0.00,,,0.00,,2013-02-26 06:32:00,
2013-02-26 01:42:00,32.0,25.0,29.96,ENE,61,11.0,17.0,76,0.00,,,0.00,,2013-02-26 06:42:00,
2013-02-26 01:52:00,32.0,25.0,29.96,East,84,10.0,18.0,76,0.00,,,0.00,,2013-02-26 06:52:00,
2013-02-26 02:01:00,32.0,26.0,29.95,NE,35,11.0,16.0,77,0.00,,,0.00,,2013-02-26 07:01:00,
2013-02-26 02:11:00,32.0,26.0,29.95,NE,35,11.0,16.0,77,0.00,,,0.00,,2013-02-26 07:11:00,
2013-02-26 02:22:00,32.0,26.0,29.94,NE,53,9.0,15.0,77,0.00,,,0.00,,2013-02-26 07:22:00,
2013-02-26 02:32:00,32.0,26.0,29.95,East,88,9.0,19.0,77,0.00,,,0.00,,2013-02-26 07:32:00,
2013-02-26 02:42:00,32.0,26.0,29.95,East,88,9.0,19.0,77,0.00,,,0.00,,2013-02-26 07:42:00,
2013-02-26 02:52:00,32.0,26.0,29.93,ENE,74,10.0,14.0,77,0.00,,,0.00,,2013-02-26 07:52:00,
2013-02-26 03:02:00,32.0,26.0,29.92,East,91,10.0,17.0,77,0.00,,,0.00,,2013-02-26 08:02:00,
2013-02-26 03:11:00,32.0,26.0,29.92,East,91,10.0,17.0,77,0.00,,,0.00,,2013-02-26 08:11:00,
2013-02-26 03:21:00,32.0,26.0,29.91,East,82,9.0,18.0,77,0.00,,,0.00,,2013-02-26 08:21:00,
2013-02-26 03:32:00,32.0,26.0,29.89,ENE,69,10.0,16.0,77,0.00,,,0.00,,2013-02-26 08:32:00,
2013-02-26 03:42:00,32.0,26.0,29.89,ENE,69,10.0,16.0,77,0.00,,,0.00,,2013-02-26 08:42:00,
2013-02-26 03:52:00,32.0,25.0,29.87,East,80,10.0,16.0,76,0.00,,,0.00,,2013-02-26 08:52:00,
2013-02-26 04:02:00,33.0,26.0,29.85,NE,54,11.0,19.0,76,0.00,,,0.00,,2013-02-26 09:02:00,
2013-02-26 04:11:00,33.0,26.0,29.85,NE,54,11.0,19.0,76,0.00,,,0.00,,2013-02-26 09:11:00,
2013-02-26 04:21:00,32.0,25.0,29.83,ENE,74,12.0,19.0,76,0.00,,,0.00,,2013-02-26 09:21:00,
2013-02-26 04:32:00,32.0,26.0,29.85,NE,45,10.0,16.0,77,0.00,,,0.00,,2013-02-26 09:32:00,
2013-02-26 04:43:00,32.0,26.0,29.85,NE,45,10.0,16.0,77,0.00,,,0.00,,2013-02-26 09:43:00,
2013-02-26 04:52:00,32.0,26.0,29.85,NE,47,11.0,18.0,77,0.00,,,0.00,,2013-02-26 09:52:00,
2013-02-26 05:01:00,32.0,26.0,29.84,ENE,74,9.0,15.0,77,0.00,,,0.00,,2013-02-26 10:01:00,
2013-02-26 05:11:00,32.0,26.0,29.84,ENE,74,9.0,15.0,77,0.00,,,0.00,,2013-02-26 10:11:00,
2013-02-26 05:21:00,32.0,26.0,29.83,East,79,9.0,18.0,77,0.00,,,0.00,,2013-02-26 10:21:00,
2013-02-26 05:32:00,32.0,25.0,29.81,NE,50,11.0,19.0,76,0.00,,,0.00,,2013-02-26 10:32:00,
2013-02-26 05:42:00,32.0,25.0,29.81,NE,50,11.0,19.0,76,0.00,,,0.00,,2013-02-26 10:42:00,
2013-02-26 05:52:00,32.0,25.0,29.81,ENE,74,13.0,21.0,76,0.00,,,0.00,,2013-02-26 10:52:00,
2013-02-26 06:01:00,33.0,26.0,29.80,ENE,69,10.0,16.0,76,0.00,,,0.00,,2013-02-26 11:01:00,
2013-02-26 06:12:00,33.0,26.0,29.80,ENE,69,10.0,16.0,76,0.00,,,0.00,,2013-02-26 11:12:00,
2013-02-26 06:22:00,33.0,26.0,29.78,NE,45,11.0,22.0,75,0.00,,,0.00,,2013-02-26 11:22:00,
2013-02-26 06:32:00,33.0,26.0,29.77,ENE,71,14.0,23.0,74,0.01,,,0.01,,2013-02-26 11:32:00,
2013-02-26 06:42:00,33.0,26.0,29.77,ENE,71,14.0,23.0,74,0.01,,,0.01,,2013-02-26 11:42:00,
2013-02-26 06:53:00,33.0,26.0,29.78,ENE,71,10.0,23.0,74,0.01,,,0.01,,2013-02-26 11:53:00,
2013-02-26 07:02:00,33.0,25.0,29.76,NE,44,15.0,21.0,73,0.01,,,0.01,,2013-02-26 12:02:00,
2013-02-26 07:11:00,33.0,25.0,29.76,NE,44,15.0,21.0,73,0.01,,,0.01,,2013-02-26 12:11:00,
2013-02-26 07:22:00,33.0,25.0,29.77,ENE,77,12.0,24.0,73,0.01,,,0.01,,2013-02-26 12:22:00,
2013-02-26 07:32:00,33.0,25.0,29.75,NE,49,14.0,21.0,72,0.00,,,0.01,,2013-02-26 12:32:00,
2013-02-26 07:42:00,33.0,25.0,29.75,NE,49,14.0,21.0,72,0.00,,,0.01,,2013-02-26 12:42:00,
2013-02-26 07:53:00,34.0,26.0,29.77,ENE,69,11.0,19.0,71,0.00,,,0.01,,2013-02-26 12:53:00,
2013-02-26 08:02:00,34.0,25.0,29.76,East,101,11.0,23.0,70,0.00,,,0.01,,2013-02-26 13:02:00,
2013-02-26 08:11:00,34.0,25.0,29.76,East,101,11.0,23.0,70,0.00,,,0.01,,2013-02-26 13:11:00,
2013-02-26 08:22:00,34.0,25.0,29.77,NE,51,12.0,18.0,70,0.00,,,0.01,,2013-02-26 13:22:00,
2013-02-26 08:32:00,34.0,26.0,29.77,ENE,74,10.0,19.0,71,0.00,,,0.01,,2013-02-26 13:32:00,
2013-02-26 08:42:00,34.0,26.0,29.77,ENE,74,10.0,19.0,71,0.00,,,0.01,,2013-02-26 13:42:00,
2013-02-26 08:52:00,34.0,26.0,29.76,ENE,72,12.0,20.0,71,0.00,,,0.01,,2013-02-26 13:52:00,
2013-02-26 09:01:00,33.0,25.0,29.75,ENE,69,14.0,23.0,72,0.00,,,0.01,,2013-02-26 14:01:00,
2013-02-26 09:11:00,33.0,25.0,29.75,ENE,69,14.0,23.0,72,0.00,,,0.01,,2013-02-26 14:11:00,
2013-02-26 09:22:00,33.0,26.0,29.72,NE,53,16.0,24.0,75,0.00,,,0.01,,2013-02-26 14:22:00,
2013-02-26 09:32:00,33.0,27.0,29.70,North,10,16.0,24.0,79,0.00,,,0.01,,2013-02-26 14:32:00,
2013-02-26 09:42:00,33.0,27.0,29.70,North,10,16.0,24.0,79,0.00,,,0.01,,2013-02-26 14:42:00,
2013-02-26 09:52:00,32.0,27.0,29.67,NE,45,12.0,21.0,83,0.03,,,0.04,,2013-02-26 14:52:00,
2013-02-26 10:02:00,32.0,28.0,29.67,East,92,15.0,22.0,84,0.05,,,0.06,,2013-02-26 15:02:00,
2013-02-26 10:11:00,32.0,28.0,29.67,East,92,15.0,22.0,84,0.05,,,0.06,,2013-02-26 15:11:00,
2013-02-26 10:22:00,32.0,28.0,29.65,East,99,11.0,19.0,84,0.05,,,0.06,,2013-02-26 15:22:00,
2013-02-26 10:32:00,33.0,29.0,29.63,East,80,10.0,18.0,84,0.05,,,0.06,,2013-02-26 15:32:00,
2013-02-26 10:42:00,33.0,29.0,29.63,East,80,10.0,18.0,84,0.05,,,0.06,,2013-02-26 15:42:00,
2013-02-26 10:52:00,33.0,29.0,29.63,NE,56,8.0,18.0,84,0.02,,,0.06,,2013-02-26 15:52:00,
2013-02-26 11:01:00,33.0,29.0,29.62,NE,52,0.0,0.0,85,0.01,,,0.07,,2013-02-26 16:01:00,
2013-02-26 11:11:00,33.0,29.0,29.62,NE,52,0.0,0.0,85,0.01,,,0.07,,2013-02-26 16:11:00,
2013-02-26 11:22:00,33.0,29.0,29.59,East,86,0.0,0.0,85,0.02,,,0.08,,2013-02-26 16:22:00,
2013-02-26 11:32:00,33.0,29.0,29.57,NE,53,0.0,0.0,85,0.03,,,0.09,,2013-02-26 16:32:00,
2013-02-26 11:42:00,33.0,29.0,29.57,NE,53,0.0,0.0,85,0.03,,,0.09,,2013-02-26 16:42:00,
2013-02-26 11:52:00,33.0,29.0,29.55,ENE,66,0.0,0.0,86,0.04,,,0.10,,2013-02-26 16:52:00,
2013-02-26 12:01:00,34.0,31.0,29.56,NE,52,0.0,0.0,87,0.03,,,0.10,,2013-02-26 17:01:00,
2013-02-26 12:11:00,34.0,31.0,29.56,NE,52,0.0,0.0,87,0.03,,,0.10,,2013-02-26 17:11:00,
2013-02-26 12:22:00,34.0,31.0,29.54,East,94,0.0,0.0,87,0.03,,,0.11,,2013-02-26 17:22:00,
2013-02-26 12:32:00,34.0,31.0,29.53,ENE,70,0.0,0.0,88,0.03,,,0.12,,2013-02-26 17:32:00,
2013-02-26 12:42:00,34.0,31.0,29.53,ENE,70,0.0,0.0,88,0.03,,,0.12,,2013-02-26 17:42:00,
2013-02-26 12:52:00,34.0,31.0,29.57,ESE,102,0.0,0.0,90,0.05,,,0.15,,2013-02-26 17:52:00,
2013-02-26 13:02:00,33.0,31.0,29.56,East,86,0.0,0.0,91,0.13,,,0.23,,2013-02-26 18:02:00,
2013-02-26 13:12:00,33.0,31.0,29.56,East,86,0.0,0.0,91,0.13,,,0.23,,2013-02-26 18:12:00,
2013-02-26 13:21:00,34.0,32.0,29.54,ENE,66,0.0,0.0,92,0.17,,,0.28,,2013-02-26 18:21:00,
2013-02-26 13:32:00,34.0,32.0,29.52,East,88,0.0,0.0,92,0.20,,,0.32,,2013-02-26 18:32:00,
2013-02-26 13:42:00,34.0,32.0,29.52,East,88,0.0,0.0,92,0.20,,,0.32,,2013-02-26 18:42:00,
2013-02-26 13:53:00,34.0,32.0,29.52,East,84,0.0,0.0,93,0.19,,,0.34,,2013-02-26 18:53:00,
2013-02-26 14:01:00,34.0,32.0,29.51,East,95,16.0,24.0,93,0.13,,,0.36,,2013-02-26 19:01:00,
2013-02-26 14:11:00,34.0,32.0,29.51,East,95,16.0,24.0,93,0.13,,,0.36,,2013-02-26 19:11:00,
2013-02-26 14:22:00,34.0,32.0,29.50,ENE,67,14.0,22.0,93,0.11,,,0.39,,2013-02-26 19:22:00,
2013-02-26 14:32:00,34.0,32.0,29.49,ENE,74,11.0,17.0,93,0.09,,,0.41,,2013-02-26 19:32:00,
2013-02-26 14:42:00,34.0,32.0,29.49,ENE,74,11.0,17.0,93,0.09,,,0.41,,2013-02-26 19:42:00,
2013-02-26 14:52:00,34.0,32.0,29.48,ENE,61,11.0,19.0,93,0.07,,,0.41,,2013-02-26 19:52:00,
2013-02-26 15:01:00,34.0,32.0,29.47,East,96,15.0,24.0,93,0.05,,,0.42,,2013-02-26 20:01:00,
2013-02-26 15:11:00,34.0,32.0,29.47,East,96,15.0,24.0,93,0.05,,,0.42,,2013-02-26 20:11:00,
2013-02-26 15:22:00,34.0,32.0,29.47,ENE,62,15.0,25.0,93,0.04,,,0.43,,2013-02-26 20:22:00,
2013-02-26 15:32:00,34.0,32.0,29.46,ESE,106,12.0,26.0,93,0.04,,,0.45,,2013-02-26 20:32:00,
2013-02-26 15:41:00,34.0,32.0,29.46,ESE,106,12.0,26.0,93,0.04,,,0.45,,2013-02-26 20:41:00,
2013-02-26 15:52:00,35.0,33.0,29.47,ESE,102,17.0,24.0,92,0.04,,,0.45,,2013-02-26 20:52:00,
2013-02-26 16:01:00,34.0,32.0,29.46,East,93,15.0,25.0,93,0.03,,,0.45,,2013-02-26 21:01:00,
2013-02-26 16:11:00,34.0,32.0,29.46,East,93,15.0,25.0,93,0.03,,,0.45,,2013-02-26 21:11:00,
2013-02-26 16:21:00,34.0,32.0,29.46,ENE,71,10.0,25.0,93,0.02,,,0.45,,2013-02-26 21:21:00,
2013-02-26 16:31:00,34.0,32.0,29.45,ENE,76,16.0,26.0,93,0.01,,,0.46,,2013-02-26 21:31:00,
2013-02-26 16:41:00,34.0,32.0,29.45,ENE,76,16.0,26.0,93,0.01,,,0.46,,2013-02-26 21:41:00,
2013-02-26 16:51:00,34.0,32.0,29.45,ENE,74,11.0,17.0,94,0.03,,,0.48,,2013-02-26 21:51:00,
2013-02-26 17:01:00,34.0,32.0,29.45,ESE,113,9.0,15.0,94,0.04,,,0.49,,2013-02-26 22:01:00,
2013-02-26 17:11:00,34.0,32.0,29.45,East,86,8.0,19.0,93,0.05,,,0.50,,2013-02-26 22:11:00,
2013-02-26 17:21:00,34.0,32.0,29.45,East,86,8.0,19.0,93,0.05,,,0.50,,2013-02-26 22:21:00,
2013-02-26 17:32:00,34.0,32.0,29.45,ENE,65,12.0,15.0,94,0.06,,,0.52,,2013-02-26 22:32:00,
2013-02-26 17:42:00,34.0,32.0,29.45,ENE,65,12.0,15.0,94,0.06,,,0.52,,2013-02-26 22:42:00,
2013-02-26 17:52:00,34.0,32.0,29.45,ENE,64,9.0,15.0,94,0.05,,,0.53,,2013-02-26 22:52:00,
2013-02-26 18:01:00,34.0,32.0,29.46,ENE,74,9.0,18.0,94,0.05,,,0.54,,2013-02-26 23:01:00,
2013-02-26 18:11:00,34.0,32.0,29.46,ENE,74,9.0,18.0,94,0.05,,,0.54,,2013-02-26 23:11:00,
2013-02-26 18:21:00,34.0,32.0,29.45,East,91,12.0,15.0,94,0.04,,,0.54,,2013-02-26 23:21:00,
2013-02-26 18:32:00,34.0,32.0,29.45,East,92,6.0,15.0,94,0.02,,,0.54,,2013-02-26 23:32:00,
2013-02-26 18:42:00,34.0,32.0,29.45,East,92,6.0,15.0,94,0.02,,,0.54,,2013-02-26 23:42:00,
2013-02-26 18:52:00,34.0,32.0,29.45,ENE,59,7.0,13.0,94,0.02,,,0.55,,2013-02-26 23:52:00,
2013-02-26 19:01:00,34.0,32.0,29.45,ENE,65,7.0,13.0,94,0.02,,,0.56,,2013-02-27 00:01:00,
2013-02-26 19:11:00,34.0,32.0,29.45,ENE,65,7.0,13.0,94,0.02,,,0.56,,2013-02-27 00:11:00,
2013-02-26 19:22:00,34.0,32.0,29.45,ESE,106,7.0,12.0,94,0.02,,,0.56,,2013-02-27 00:22:00,
2013-02-26 19:32:00,34.0,32.0,29.46,ENE,65,7.0,12.0,94,0.02,,,0.56,,2013-02-27 00:32:00,
2013-02-26 19:42:00,34.0,32.0,29.46,ENE,65,7.0,12.0,94,0.02,,,0.56,,2013-02-27 00:42:00,
2013-02-26 19:52:00,34.0,32.0,29.45,ENE,67,5.0,9.0,94,0.01,,,0.56,,2013-02-27 00:52:00,
2013-02-26 20:01:00,34.0,32.0,29.45,NE,53,6.0,10.0,94,0.01,,,0.57,,2013-02-27 01:01:00,
2013-02-26 20:11:00,34.0,32.0,29.45,NE,53,6.0,10.0,94,0.01,,,0.57,,2013-02-27 01:11:00,
2013-02-26 20:22:00,34.0,32.0,29.45,NE,49,5.0,11.0,94,0.02,,,0.58,,2013-02-27 01:22:00,
2013-02-26 20:32:00,34.0,32.0,29.45,NNE,12,5.0,10.0,94,0.02,,,0.58,,2013-02-27 01:32:00,
2013-02-26 20:42:00,34.0,32.0,29.45,NNE,12,5.0,10.0,94,0.02,,,0.58,,2013-02-27 01:42:00,
2013-02-26 20:52:00,34.0,32.0,29.44,ENE,61,3.0,9.0,94,0.03,,,0.59,,2013-02-27 01:52:00,
2013-02-26 21:01:00,34.0,32.0,29.44,East,88,3.0,8.0,94,0.03,,,0.60,,2013-02-27 02:01:00,
2013-02-26 21:15:00,34.0,32.0,29.44,East,88,3.0,8.0,94,0.03,,,0.60,,2013-02-27 02:15:00,
2013-02-26 21:24:00,34.0,33.0,29.44,ENE,76,4.0,8.0,95,0.02,,,0.60,,2013-02-27 02:24:00,
2013-02-26 21:32:00,34.0,33.0,29.44,ENE,60,4.0,9.0,95,0.02,,,0.60,,2013-02-27 02:32:00,
2013-02-26 21:42:00,34.0,33.0,29.44,ENE,60,4.0,9.0,95,0.02,,,0.60,,2013-02-27 02:42:00,
2013-02-26 21:52:00,34.0,33.0,29.44,East,81,3.0,8.0,95,0.01,,,0.60,,2013-02-27 02:52:00,
2013-02-26 22:02:00,34.0,33.0,29.44,ENE,65,3.0,5.0,95,0.01,,,0.61,,2013-02-27 03:02:00,
2013-02-26 22:11:00,34.0,33.0,29.44,ENE,65,3.0,5.0,95,0.01,,,0.61,,2013-02-27 03:11:00,
2013-02-26 22:22:00,34.0,33.0,29.44,East,83,1.0,4.0,95,0.01,,,0.61,,2013-02-27 03:22:00,
2013-02-26 22:32:00,34.0,33.0,29.44,ENE,74,1.0,2.0,95,0.01,,,0.61,,2013-02-27 03:32:00,
2013-02-26 22:42:00,34.0,33.0,29.44,ENE,74,1.0,2.0,95,0.01,,,0.61,,2013-02-27 03:42:00,
2013-02-26 22:52:00,34.0,33.0,29.44,ENE,74,1.0,3.0,95,0.02,,,0.62,,2013-02-27 03:52:00,
2013-02-26 23:01:00,34.0,33.0,29.44,NE,55,0.0,2.0,95,0.01,,,0.62,,2013-02-27 04:01:00,
2013-02-26 23:11:00,34.0,33.0,29.44,NE,55,0.0,2.0,95,0.01,,,0.62,,2013-02-27 04:11:00,
2013-02-26 23:22:00,34.0,33.0,29.44,NE,55,0.0,2.0,95,0.01,,,0.62,,2013-02-27 04:22:00,
2013-02-26 23:32:00,34.0,33.0,29.43,NE,55,0.0,0.0,96,0.01,,,0.62,,2013-02-27 04:32:00,
2013-02-26 23:42:00,34.0,33.0,29.43,NE,55,0.0,0.0,96,0.01,,,0.62,,2013-02-27 04:42:00,
2013-02-26 23:52:00,33.0,32.0,29.43,NE,55,0.0,1.0,95,0.00,,,0.62,,2013-02-27 04:52:00,